User: anonymous   Login
Location: Gad�tanya
(48.0500°N, 20.8500°E)
Time: 12:44:26
(UTC+00:00)
Language:

Cosmos 1400 Rocket - Orbit

View from above orbital plane
View from above orbital plane
View from above satellite
View from above satellite

Ground track
Ground track

The orbit data is extracted from the following two-line orbital elements,

1 13403U 82079B   20272.17390734  .00000227  00000-0  13381-4 0  9995
2 13403  81.1696 335.2914 0031651 285.1642  74.6082 15.07208404 77298
Epoch (UTC): 28 September 2020 04:10:25
Eccentricity: 0.0031651
inclination: 81.1696°
perigee height: 523 km
apogee height: 566 km
right ascension of ascending node: 335.2914°
argument of perigee: 285.1642°
revolutions per day: 15.07208404
mean anomaly at epoch: 74.6082°
orbit number at epoch: 7729

The dashed part of the orbit path shows where the satellite is in the earth's shadow,  

DLR